When you browse on this site, cookies collect data to enhance your experience and personalize the content and advertising you see.
Visit our Privacy Policy to learn more. By continuing to use the site, you agree to this use of cookies and data.
  • In Schweiz
  • Länderverzeichnis
  • Für 7 Tage
  • Wassertemperatur
  • Wetterkarte
  • Widgets
  • user-avatar
    Anmelden

    Stündliche Wetter Xishan

    Heute, 29 Mai, Freitag

    Zeit Temperatur Niederschläge Wind Luftdruck Luftfeuchtigkeit
    00:00 +22°C° 0 mm 0 m/S 739 mmHg 80%
    01:00 +22°C° 0 mm 0 m/S 738 mmHg 81%
    02:00 +22°C° 0.1 mm 0 m/S 738 mmHg 82%
    03:00 +22°C° 0.1 mm 0 m/S 738 mmHg 84%
    04:00 +22°C° 0.1 mm 0 m/S 738 mmHg 85%
    05:00 +22°C° 0.2 mm 0 m/S 738 mmHg 87%
    06:00 +22°C° 0.2 mm 0 m/S 738 mmHg 88%
    07:00 +22°C° 0.2 mm 0 m/S 738 mmHg 89%
    08:00 +22°C° 0.3 mm 0 m/S 738 mmHg 89%
    09:00 +25°C° 0.3 mm 1 m/S 739 mmHg 88%
    10:00 +25°C° 0.3 mm 1 m/S 739 mmHg 88%
    11:00 +26°C° 0.2 mm 1 m/S 738 mmHg 86%
    12:00 +25°C° 0.2 mm 0 m/S 738 mmHg 84%
    13:00 +25°C° 0.2 mm 0 m/S 737 mmHg 82%
    14:00 +26°C° 0 mm 0 m/S 737 mmHg 80%
    15:00 +27°C° 0 mm 0 m/S 737 mmHg 78%
    16:00 +27°C° 0 mm 0 m/S 736 mmHg 76%
    17:00 +26°C° 0 mm 0 m/S 736 mmHg 81%
    18:00 +25°C° 0 mm 0 m/S 737 mmHg 86%
    19:00 +23°C° 0 mm 0 m/S 737 mmHg 90%
    20:00 +23°C° 0 mm 0 m/S 737 mmHg 92%
    21:00 +23°C° 0 mm 0 m/S 738 mmHg 93%
    22:00 +22°C° 0 mm 0 m/S 738 mmHg 94%
    23:00 +22°C° 0 mm 0 m/S 738 mmHg 95%

    Morgen, 30 Mai, Samstag

    Zeit Temperatur Niederschläge Wind Luftdruck Luftfeuchtigkeit
    00:00 +22°C° 0 mm 0 m/S 738 mmHg 95%
    01:00 +22°C° 0 mm 0 m/S 738 mmHg 96%
    02:00 +22°C° 0.1 mm 0 m/S 737 mmHg 96%
    03:00 +22°C° 0.1 mm 0 m/S 737 mmHg 96%
    04:00 +22°C° 0.1 mm 0 m/S 737 mmHg 97%
    05:00 +23°C° 0.7 mm 0 m/S 738 mmHg 95%
    06:00 +24°C° 0.7 mm 0 m/S 738 mmHg 93%
    07:00 +25°C° 0.7 mm 0 m/S 739 mmHg 91%
    08:00 +26°C° 0.5 mm 0 m/S 739 mmHg 86%
    09:00 +28°C° 0.5 mm 0 m/S 739 mmHg 82%
    10:00 +30°C° 0.5 mm 0 m/S 739 mmHg 77%
    11:00 +30°C° 0.7 mm 0 m/S 738 mmHg 75%
    12:00 +33°C° 0.7 mm 1 m/S 738 mmHg 73%
    13:00 +33°C° 0.7 mm 1 m/S 737 mmHg 71%
    14:00 +33°C° 0.5 mm 1 m/S 737 mmHg 72%
    15:00 +32°C° 0.5 mm 1 m/S 737 mmHg 74%
    16:00 +32°C° 0.5 mm 1 m/S 736 mmHg 76%
    17:00 +31°C° 0.3 mm 1 m/S 736 mmHg 82%
    18:00 +29°C° 0.3 mm 1 m/S 736 mmHg 88%
    19:00 +28°C° 0.3 mm 1 m/S 737 mmHg 94%
    20:00 +27°C° 0 mm 1 m/S 737 mmHg 95%
    21:00 +27°C° 0 mm 1 m/S 738 mmHg 96%
    22:00 +27°C° 0 mm 1 m/S 738 mmHg 97%
    23:00 +26°C° 0.4 mm 1 m/S 738 mmHg 97%

    übermorgen, 31 Mai, Sonntag

    Zeit Temperatur Niederschläge Wind Luftdruck Luftfeuchtigkeit
    00:00 +26°C° 0.4 mm 1 m/S 738 mmHg 97%
    01:00 +26°C° 0.4 mm 1 m/S 737 mmHg 97%
    02:00 +26°C° 0.9 mm 1 m/S 737 mmHg 97%
    03:00 +26°C° 0.9 mm 1 m/S 737 mmHg 97%
    04:00 +26°C° 0.9 mm 1 m/S 737 mmHg 97%
    05:00 +27°C° 0.1 mm 1 m/S 738 mmHg 96%
    06:00 +27°C° 0.1 mm 1 m/S 738 mmHg 95%
    07:00 +28°C° 0.1 mm 1 m/S 738 mmHg 94%
    08:00 +29°C° 0.3 mm 1 m/S 738 mmHg 88%
    09:00 +30°C° 0.3 mm 2 m/S 738 mmHg 83%
    10:00 +31°C° 0.3 mm 2 m/S 738 mmHg 77%
    11:00 +31°C° 0.4 mm 2 m/S 738 mmHg 76%
    12:00 +32°C° 0.4 mm 2 m/S 737 mmHg 75%
    13:00 +32°C° 0.4 mm 2 m/S 737 mmHg 74%
    14:00 +31°C° 1.5 mm 2 m/S 736 mmHg 77%
    15:00 +31°C° 1.5 mm 1 m/S 736 mmHg 81%
    16:00 +30°C° 1.5 mm 1 m/S 736 mmHg 85%
    17:00 +29°C° 1.6 mm 1 m/S 736 mmHg 88%
    18:00 +28°C° 1.6 mm 1 m/S 736 mmHg 91%
    19:00 +27°C° 1.6 mm 1 m/S 736 mmHg 94%
    20:00 +27°C° 0 mm 1 m/S 737 mmHg 94%
    21:00 +26°C° 0 mm 1 m/S 737 mmHg 95%
    22:00 +26°C° 0 mm 1 m/S 738 mmHg 96%
    23:00 +24°C° 0 mm 0 m/S 737 mmHg 96%

    1 Juni, Montag

    Zeit Temperatur Niederschläge Wind Luftdruck Luftfeuchtigkeit
    00:00 +24°C° 0 mm 0 m/S 737 mmHg 96%
    01:00 +24°C° 0 mm 0 m/S 737 mmHg 96%
    02:00 +23°C° 0.4 mm 0 m/S 737 mmHg 97%
    03:00 +23°C° 0.4 mm 0 m/S 737 mmHg 97%
    04:00 +23°C° 0.4 mm 0 m/S 737 mmHg 97%
    05:00 +24°C° 1.1 mm 0 m/S 737 mmHg 96%
    06:00 +24°C° 1.1 mm 0 m/S 737 mmHg 96%
    07:00 +25°C° 1.1 mm 0 m/S 738 mmHg 95%
    08:00 +28°C° 0.4 mm 1 m/S 738 mmHg 93%
    09:00 +28°C° 0.4 mm 1 m/S 738 mmHg 90%
    10:00 +29°C° 0.4 mm 1 m/S 738 mmHg 88%
    11:00 +30°C° 1.2 mm 1 m/S 737 mmHg 85%
    12:00 +31°C° 1.2 mm 1 m/S 737 mmHg 82%
    13:00 +32°C° 1.2 mm 1 m/S 736 mmHg 79%
    14:00 +32°C° 1.1 mm 1 m/S 735 mmHg 79%
    15:00 +32°C° 1.1 mm 1 m/S 735 mmHg 79%
    16:00 +31°C° 1.1 mm 1 m/S 734 mmHg 80%
    17:00 +30°C° 0.7 mm 1 m/S 735 mmHg 84%
    18:00 +29°C° 0.7 mm 1 m/S 735 mmHg 88%
    19:00 +28°C° 0.7 mm 1 m/S 735 mmHg 93%
    20:00 +27°C° 0.2 mm 1 m/S 735 mmHg 94%
    21:00 +27°C° 0.2 mm 1 m/S 736 mmHg 95%
    22:00 +26°C° 0.2 mm 1 m/S 736 mmHg 96%
    23:00 +26°C° 0.3 mm 1 m/S 736 mmHg 96%

    2 Juni, Dienstag

    Zeit Temperatur Niederschläge Wind Luftdruck Luftfeuchtigkeit
    00:00 +26°C° 0.3 mm 1 m/S 735 mmHg 96%
    01:00 +26°C° 0.3 mm 1 m/S 735 mmHg 97%
    02:00 +26°C° 0.8 mm 1 m/S 735 mmHg 97%
    03:00 +26°C° 0.8 mm 1 m/S 735 mmHg 97%
    04:00 +26°C° 0.8 mm 1 m/S 735 mmHg 98%
    05:00 +26°C° 0.5 mm 1 m/S 735 mmHg 97%
    06:00 +27°C° 0.5 mm 1 m/S 735 mmHg 96%
    07:00 +27°C° 0.5 mm 1 m/S 735 mmHg 95%
    08:00 +28°C° 0.7 mm 1 m/S 736 mmHg 94%
    09:00 +28°C° 0.7 mm 1 m/S 736 mmHg 93%
    10:00 +29°C° 0.7 mm 1 m/S 736 mmHg 92%
    11:00 +29°C° 1.4 mm 1 m/S 735 mmHg 89%
    12:00 +30°C° 1.4 mm 2 m/S 735 mmHg 87%
    13:00 +31°C° 1.4 mm 2 m/S 734 mmHg 84%
    14:00 +31°C° 1.1 mm 2 m/S 734 mmHg 84%
    15:00 +31°C° 1.1 mm 2 m/S 733 mmHg 83%
    16:00 +31°C° 1.1 mm 2 m/S 733 mmHg 83%
    17:00 +30°C° 0.9 mm 1 m/S 733 mmHg 87%
    18:00 +29°C° 0.9 mm 1 m/S 734 mmHg 91%
    19:00 +27°C° 0.9 mm 1 m/S 734 mmHg 95%
    20:00 +27°C° 0.2 mm 1 m/S 734 mmHg 96%
    21:00 +27°C° 0.2 mm 1 m/S 735 mmHg 96%
    22:00 +27°C° 0.2 mm 1 m/S 735 mmHg 97%
    23:00 +27°C° 0.3 mm 1 m/S 735 mmHg 97%

    3 Juni, Mittwoch

    Zeit Temperatur Niederschläge Wind Luftdruck Luftfeuchtigkeit
    00:00 +26°C° 0.3 mm 1 m/S 735 mmHg 97%
    01:00 +26°C° 0.3 mm 1 m/S 734 mmHg 97%
    02:00 +26°C° 0.7 mm 1 m/S 734 mmHg 97%
    03:00 +26°C° 0.7 mm 1 m/S 734 mmHg 97%
    04:00 +26°C° 0.7 mm 1 m/S 734 mmHg 98%
    05:00 +26°C° 0.4 mm 1 m/S 734 mmHg 97%
    06:00 +27°C° 0.4 mm 1 m/S 734 mmHg 97%
    07:00 +27°C° 0.4 mm 1 m/S 735 mmHg 96%
    08:00 +28°C° 0.5 mm 1 m/S 735 mmHg 94%
    09:00 +28°C° 0.5 mm 1 m/S 735 mmHg 93%
    10:00 +29°C° 0.5 mm 1 m/S 735 mmHg 91%
    11:00 +29°C° 1.6 mm 1 m/S 735 mmHg 90%
    12:00 +29°C° 1.6 mm 1 m/S 735 mmHg 90%
    13:00 +30°C° 1.6 mm 1 m/S 734 mmHg 90%
    14:00 +29°C° 2 mm 1 m/S 734 mmHg 91%
    15:00 +29°C° 2 mm 1 m/S 734 mmHg 93%
    16:00 +28°C° 2 mm 1 m/S 733 mmHg 95%
    17:00 +27°C° 0.6 mm 1 m/S 734 mmHg 96%
    18:00 +27°C° 0.6 mm 1 m/S 734 mmHg 97%
    19:00 +26°C° 0.6 mm 1 m/S 734 mmHg 97%
    20:00 +26°C° 0.8 mm 1 m/S 735 mmHg 98%
    21:00 +26°C° 0.8 mm 1 m/S 735 mmHg 98%
    22:00 +26°C° 0.8 mm 1 m/S 736 mmHg 98%
    23:00 +24°C° 3.9 mm 0 m/S 735 mmHg 98%
    Mehr zeigen